Regional Weather Roundup
Issued by NWS

Home | Current Version | Previous Version | Text Only | Print | Product List | Glossary On
Versions: 1 2 3 4 5 6 7 8 9 10 11 12 13 14 15 16 17 18 19 20 21 22 23 24 25 26 27 28 29 30 31 32 33 34 35 36 37 38 39 40 41 42 43 44 45 46 47 48 49
000
ASUS44 KBMX 201610
RWRAL

ALABAMA REGIONAL WEATHER ROUNDUP
NATIONAL WEATHER SERVICE BIRMINGHAM AL
1000 AM CST SAT DEC 20 2014

NOTE: "FAIR" INDICATES FEW OR NO CLOUDS BELOW 12,000 FEET
WITH NO SIGNIFICANT WEATHER AND/OR OBSTRUCTIONS TO VISIBILITY.

THE REMARK "TC" DENOTES TEMPERATURE IN DEGREES CELSIUS.

ALZ001>011-014-016>018-020-201700-
NORTH ALABAMA

CITY           SKY/WX    TMP DP  RH WIND       PRES   REMARKS
MUSCLE SHOALS  SUNNY     42  30  62 NE5       30.28S
HUNTSVILLE     SUNNY     45  31  58 NE6       30.26S
DECATUR        SUNNY     44  31  60 N9        30.27S
HALEYVILLE     FAIR      41  32  70 NE7       30.27S
GADSDEN        CLOUDY    45  36  70 NE5       30.24S
$$

ALZ012-013-022-023-030>036-040>044-201700-
WEST CENTRAL ALABAMA

CITY           SKY/WX    TMP DP  RH WIND       PRES   REMARKS
TUSCALOOSA     CLOUDY    45  38  76 N5        30.26R
$$

ALZ015-024>027-033>036-040>044-201700-
CENTRAL ALABAMA

CITY           SKY/WX    TMP DP  RH WIND       PRES   REMARKS
BIRMINGHAM     CLOUDY    44  38  79 NE5       30.25S
MONTGOMERY     CLOUDY    49  45  86 NE6       30.21F
SHELBY CO ARPT CLOUDY    46  40  79 N3        30.23R
MAXWELL AFB    CLOUDY    48  46  91 NE7       30.21F
GREENVILLE     CLOUDY    48  45  89 VRB5      30.19R
$$

ALZ019-021-028-029-037-038-045>048-201700-
EAST CENTRAL ALABAMA

CITY           SKY/WX    TMP DP  RH WIND       PRES   REMARKS
ANNISTON       CLOUDY    43  40  89 CALM      30.23S FOG
ALEXANDER CITY CLOUDY    49  44  81 NE3       30.22S
AUBURN         CLOUDY    45  41  87 NE3       30.23S
$$

ALZ051>064-201700-
SOUTHWEST ALABAMA

CITY           SKY/WX    TMP DP  RH WIND       PRES   REMARKS
MOBILE         CLOUDY    47  47 100 NE12      30.17R
BROOKLEY FIELD LGT RAIN  50  47  89 N12       30.18R
EVERGREEN      CLOUDY    49  46  90 NE6       30.19R
$$

ALZ049-050-065>069-201700-
SOUTHEAST ALABAMA

CITY           SKY/WX    TMP DP  RH WIND       PRES   REMARKS
DOTHAN         CLOUDY    52  49  89 E5        30.21S
OZARK          CLOUDY    50  48  93 NE6       30.18
TROY           CLOUDY    48  45  89 NE6       30.20F
EUFAULA        CLOUDY    50  48  93 CALM      30.19F FOG
$$


USA.gov is the U.S. government's official web portal to all federal, state and local government web resources and services.